Location: Temple Hill
(37.3073°N, 88.6303°W)
Time: 17:03:25
(UTC+00:00)

Cosmos 1666 Rocket - Pass Details

Date: 23 November 2020
Orbit: 604 x 632 km, 82.5° (Epoch: 20 January)

Event Time Altitude Azimuth Distance (km) Brightness Sun altitude
Rises 23:29:36 0° 5° (N) 2,894 6.8 -10.1°
Reaches altitude 10° 23:32:06 10° 17° (NNE) 1,989 5.8 -10.6°
Maximum altitude 23:35:54 28° 77° (ENE) 1,173 4.4 -11.3°
Drops below altitude 10° 23:39:42 10° 137° (SE) 1,992 5.9 -12.0°
Sets 23:42:11 0° 148° (SSE) 2,899 6.8 -12.5°
